Vertical_Velocity
-3 -3 4 2 -8 -18 -3 -4 -2 -6 -0 0 -3 8 -4 -0 0 0 -1 8 2 6 3 4 3 4 4 1 0 -3 -1 -1 2 2 2 -2 -3 -4 -3 -0 -1 -1 -1
2 -7 1 -4 -1 -8 -5 3 1 -3 -8 -11 -3 2 -3 2 1 -2 -2 13 10 8 4 3 4 -0 -4 -4 -5 -3 -2 -0 -3 1 1 1 1 -1 0 -3 -1 -1 -0
0 0 -0 -5 -5 -1 3 1 -1 6 4 7 -9 -0 -4 -0 10 7 5 -5 19 6 5 6 -1 -1 -6 -3 -3 -3 -3 -8 -4 -2 -3 0 -1 -1 -1 0 0 -1 -1
3 1 1 0 -0 1 1 5 -2 -0 2 -5 -3 0 -1 1 3 5 0 -0 -10 0 3 2 0 -1 1 1 1 -1 -2 -0 -2 -2 -3 -3 -2 -0 -2 -2 -1 -0 -4
3 1 1 4 2 1 1 1 1 8 0 1 0 1 4 7 1 -3 -0 5 -6 3 -8 -2 -4 -0 1 1 -1 1 1 0 -0 -1 -0 1 -1 -1 -2 -0 -2 -2 -1
11 3 -3 3 5 1 3 1 3 3 4 2 -2 -1 11 8 4 3 5 3 -1 -0 -1 -4 -3 -4 -2 -0 -1 -3 -1 0 -1 -2 0 -1 -1 -0 1 -1 0 0 -3
15 9 5 6 5 5 -0 2 -0 -1 1 4 -5 11 10 9 7 7 8 6 2 2 3 3 1 -3 -2 -2 -1 -2 -4 1 -1 -2 -1 -2 1 -2 -2 -1 -2 2 -1
14 7 22 5 4 -2 1 -0 -0 -8 10 5 -6 -1 0 4 14 8 12 -1 15 2 2 3 -0 -1 1 -3 -1 -3 -0 2 -4 -1 -4 3 -3 -0 -1 -1 -3 -1 1
-2 12 -12 34 7 5 -0 3 -3 -3 -9 -2 5 -12 -6 -1 -8 7 -3 -3 20 -4 15 2 -0 4 -2 2 -1 -6 -5 1 0 -3 -4 -1 2 -0 -2 -0 0 -1 0
-18 -1 3 13 22 14 2 6 10 4 2 -9 4 1 5 -7 -19 -6 6 2 -2 6 0 -1 -0 1 -1 -6 3 2 -1 -1 -3 -3 -3 2 -0 -2 -1 0 1 -1 -0
5 -4 -2 -6 3 13 2 8 9 13 18 10 6 -12 -4 9 7 -12 -5 -9 -2 -1 -4 2 1 -1 -2 -2 2 2 4 2 -3 0 -0 1 -0 -3 3 1 -3 0 -1
3 -2 5 9 -13 8 -6 6 -4 -2 15 7 8 7 7 -0 -12 -13 -6 6 6 -2 3 -3 10 2 -1 -4 4 -1 1 2 -1 3 1 1 -1 -1 2 0 -1 -1 -2
6 -6 -2 12 -6 -1 6 -5 4 -3 12 2 13 6 7 14 9 4 12 -1 -6 2 1 2 -8 11 -1 -4 -0 2 -1 1 3 -2 -2 2 1 -1 1 -1 -0 0 -2
-8 5 4 4 1 -5 6 -1 5 -9 3 7 5 5 0 -6 1 8 -4 -10 -1 0 3 -4 1 7 -3 2 -1 2 1 -0 0 2 1 -1 0 2 -1 -1 -0 1 2
20 -8 -1 -4 4 -2 3 3 6 10 -13 15 -2 5 -1 2 9 5 7 5 -4 -13 -6 -5 -4 -2 -2 1 1 3 -1 -3 2 3 2 2 1 1 2 1 1 -2 0
-2 11 9 -12 6 -15 16 -6 6 2 10 -10 -6 7 7 -2 1 2 3 5 4 4 -3 -4 -2 -0 1 2 -1 -2 1 -2 -2 2 0 1 1 -0 -1 -2 -0 1 -2
2 -4 -10 5 -13 14 3 -11 15 -5 -3 7 4 -4 -7 -1 7 8 2 9 6 1 -4 3 -3 1 4 2 0 4 -1 -1 2 2 -1 1 2 -1 1 -2 -2 -4 2
2 -2 0 -5 -6 1 -5 -10 -0 9 -5 -1 4 -7 -3 -9 -11 7 -5 9 12 5 0 2 3 -5 0 2 4 -1 2 3 -0 2 3 -1 0 1 -1 -4 0 -1 -3
-1 3 3 5 1 4 3 0 -4 4 -5 -1 1 -1 -7 -3 -2 -3 -6 0 1 4 4 -0 -4 6 1 1 1 4 -3 1 1 -1 -0 -1 2 3 -1 -3 -3 -4 -5
1 -2 0 1 5 3 2 -1 -2 -3 3 -1 2 5 8 11 -3 -0 3 3 -3 0 1 -1 3 -0 3 5 5 3 -2 -1 -2 3 -1 2 -1 -2 -1 -1 -1 -1 -5
0 3 -1 -1 -0 -1 0 5 3 3 -1 -4 2 4 4 -5 7 11 2 1 -1 -1 -0 1 1 3 -2 -5 -7 -4 1 4 -0 -2 -2 -1 -0 -4 2 -2 -0 -1 -3
2 0 -2 1 0 -0 2 2 -5 -1 0 9 2 -1 7 2 -2 2 11 3 1 5 -4 -5 -3 -2 4 1 -0 1 8 -1 -5 -0 1 -2 -1 -3 -3 -1 1 -0 -1
-2 -1 1 -2 -4 1 1 3 5 2 1 3 -0 3 -2 -4 -5 -5 -1 -0 0 0 9 13 8 1 3 -2 8 6 -2 -0 -2 -0 0 -6 0 -1 -2 -3 -1 -2 -1
0 0 -0 -2 1 0 -4 0 7 2 -2 -1 -1 -3 -4 1 5 6 1 -1 -3 -5 -3 -6 -4 -1 0 2 -3 -2 2 2 -2 -2 -1 -7 0 -5 1 0 2 1 -3
-1 -1 -1 1 -4 -3 0 -2 -3 3 4 0 -1 -3 -2 -3 0 2 -0 -2 4 1 3 6 -2 4 0 1 -4 1 -4 1 0 -9 1 6 -11 -4 -1 -1 -2 -1 -2
-5 -3 -2 -5 -1 -1 -2 1 4 -0 -3 -1 -0 1 4 2 -1 -1 4 -2 -0 -2 3 -0 2 2 10 0 1 8 2 -2 -0 4 -9 3 2 5 -4 -11 -5 0 2
Height
1489 1492 1492 1497 1501 1504 1510 1511 1519 1526 1531 1536 1540 1543 1547 1549 1552 1555 1558 1561 1563 1565 1567 1570 1573 1576 1578 1581 1584 1586 1589 1591 1594 1596 1596 1598 1599 1600 1601 1602 1604 1604 1605
1488 1490 1493 1496 1501 1506 1510 1516 1520 1524 1530 1536 1542 1545 1547 1549 1551 1555 1559 1563 1565 1566 1567 1570 1573 1576 1579 1582 1584 1587 1589 1592 1594 1597 1598 1599 1600 1601 1602 1604 1605 1606 1607
1487 1489 1492 1497 1501 1506 1510 1516 1520 1525 1527 1531 1540 1545 1548 1551 1553 1555 1557 1561 1564 1566 1568 1571 1573 1576 1579 1581 1584 1586 1588 1591 1594 1595 1598 1600 1601 1602 1602 1604 1605 1606 1607
1485 1488 1491 1495 1499 1504 1509 1513 1517 1522 1526 1531 1535 1543 1546 1551 1553 1555 1559 1560 1561 1561 1566 1570 1572 1576 1579 1580 1582 1585 1586 1590 1591 1593 1596 1598 1599 1601 1601 1603 1604 1605 1606
1480 1485 1490 1493 1496 1501 1507 1512 1516 1520 1522 1527 1534 1540 1544 1548 1551 1556 1558 1558 1562 1560 1563 1569 1573 1576 1578 1579 1581 1583 1585 1587 1589 1591 1594 1595 1597 1598 1599 1600 1601 1603 1603
1477 1480 1486 1490 1492 1497 1502 1507 1513 1517 1522 1525 1531 1536 1539 1544 1550 1553 1553 1556 1557 1562 1565 1567 1570 1575 1578 1580 1581 1583 1585 1585 1587 1589 1591 1593 1595 1596 1596 1598 1598 1599 1600
1469 1476 1482 1485 1489 1493 1498 1503 1508 1513 1518 1523 1527 1532 1534 1539 1544 1548 1551 1553 1557 1560 1565 1567 1569 1572 1575 1579 1581 1583 1587 1586 1587 1591 1592 1594 1595 1596 1595 1597 1597 1598 1598
1461 1467 1475 1481 1484 1489 1493 1497 1502 1507 1514 1517 1521 1532 1537 1540 1542 1542 1548 1552 1555 1556 1564 1567 1570 1572 1573 1576 1581 1582 1586 1585 1587 1590 1593 1594 1594 1596 1596 1596 1597 1598 1597
1459 1463 1467 1470 1479 1483 1488 1492 1496 1501 1506 1512 1518 1521 1529 1536 1541 1542 1547 1548 1551 1556 1560 1564 1568 1571 1573 1576 1578 1580 1583 1585 1587 1588 1591 1594 1595 1595 1595 1595 1596 1597 1597
1459 1459 1464 1469 1471 1474 1480 1487 1491 1496 1501 1505 1510 1514 1516 1520 1528 1540 1543 1545 1550 1556 1559 1562 1567 1570 1570 1574 1577 1579 1580 1582 1584 1587 1591 1591 1593 1592 1593 1594 1595 1595 1597
1457 1459 1466 1466 1465 1470 1474 1477 1484 1489 1493 1499 1504 1507 1513 1515 1521 1525 1533 1539 1546 1550 1555 1560 1563 1566 1569 1573 1576 1576 1579 1580 1583 1585 1587 1588 1590 1590 1592 1591 1593 1594 1595
1452 1458 1462 1467 1461 1467 1471 1475 1478 1481 1489 1493 1497 1501 1503 1507 1510 1517 1522 1531 1535 1541 1550 1554 1557 1560 1564 1569 1572 1574 1577 1579 1580 1583 1584 1585 1587 1588 1591 1590 1592 1592 1594
1452 1454 1459 1463 1460 1467 1469 1471 1476 1479 1483 1487 1493 1495 1498 1502 1505 1508 1513 1521 1529 1539 1545 1549 1554 1555 1558 1564 1568 1571 1574 1577 1577 1580 1581 1583 1584 1586 1587 1588 1589 1590 1591
1450 1453 1456 1457 1458 1465 1469 1469 1473 1473 1478 1484 1488 1492 1496 1499 1501 1505 1508 1513 1527 1534 1538 1539 1546 1550 1553 1559 1564 1567 1569 1573 1576 1577 1578 1581 1582 1583 1584 1585 1586 1588 1588
1456 1445 1458 1455 1458 1459 1466 1466 1471 1471 1476 1476 1480 1489 1491 1497 1501 1504 1508 1508 1513 1522 1529 1534 1538 1542 1548 1554 1557 1562 1564 1570 1572 1574 1574 1577 1578 1580 1581 1582 1583 1585 1586
1447 1450 1454 1454 1459 1462 1462 1468 1469 1471 1474 1472 1482 1480 1489 1494 1500 1501 1503 1507 1510 1512 1517 1525 1531 1535 1541 1547 1552 1557 1560 1565 1569 1570 1571 1574 1574 1576 1577 1578 1580 1581 1582
1450 1449 1460 1461 1458 1464 1457 1467 1468 1470 1471 1478 1476 1479 1483 1486 1497 1499 1502 1505 1506 1508 1512 1520 1526 1532 1538 1542 1546 1551 1555 1561 1564 1566 1568 1570 1571 1571 1573 1574 1576 1578 1578
1454 1457 1459 1457 1462 1460 1460 1463 1469 1471 1471 1476 1473 1474 1481 1484 1494 1499 1498 1505 1504 1506 1508 1515 1519 1526 1533 1537 1542 1547 1553 1556 1559 1562 1564 1566 1567 1568 1568 1570 1571 1572 1574
1457 1458 1459 1462 1462 1461 1462 1464 1470 1467 1467 1473 1477 1476 1482 1485 1491 1496 1500 1503 1504 1506 1508 1511 1516 1520 1525 1531 1537 1541 1547 1551 1554 1557 1560 1562 1564 1563 1563 1565 1567 1567 1569
1459 1460 1461 1461 1461 1462 1464 1464 1471 1473 1473 1471 1480 1478 1483 1487 1487 1493 1496 1496 1500 1505 1508 1510 1512 1517 1523 1527 1533 1535 1541 1544 1549 1552 1554 1556 1557 1558 1559 1559 1561 1561 1562
1461 1460 1460 1462 1463 1463 1467 1471 1472 1471 1472 1476 1481 1480 1479 1481 1487 1490 1492 1493 1496 1502 1505 1508 1510 1514 1519 1522 1527 1530 1536 1539 1543 1545 1548 1549 1550 1552 1553 1552 1554 1553 1555
1460 1460 1462 1462 1464 1466 1469 1471 1472 1473 1476 1480 1476 1479 1476 1479 1484 1487 1489 1488 1496 1499 1502 1503 1507 1511 1515 1517 1523 1528 1530 1532 1536 1538 1539 1541 1542 1543 1546 1546 1547 1546 1547
1459 1460 1461 1462 1464 1466 1468 1470 1471 1470 1471 1470 1473 1474 1478 1482 1480 1486 1488 1488 1492 1497 1500 1501 1502 1507 1510 1515 1519 1521 1523 1525 1527 1531 1531 1533 1536 1534 1537 1539 1539 1539 1540
1458 1459 1460 1461 1462 1464 1464 1466 1469 1468 1469 1470 1470 1472 1474 1478 1479 1481 1483 1486 1489 1493 1496 1497 1501 1504 1506 1508 1511 1514 1516 1518 1520 1524 1526 1523 1528 1527 1530 1530 1531 1531 1532
1457 1457 1458 1458 1459 1460 1462 1464 1466 1466 1467 1466 1468 1470 1471 1473 1474 1477 1478 1481 1483 1486 1488 1490 1494 1496 1499 1501 1503 1507 1508 1511 1510 1514 1518 1517 1518 1519 1522 1521 1522 1523 1523
1455 1456 1455 1456 1456 1457 1459 1460 1462 1463 1464 1464 1465 1466 1468 1468 1469 1472 1474 1475 1477 1480 1481 1484 1487 1490 1493 1494 1498 1499 1501 1501 1504 1506 1508 1511 1512 1513 1510 1508 1513 1513 1513